Weather History for Galliano, LA

Change the Weather History Date:

Friday, May 24, 2013

  Actual Average (KAXO) Record (KAXO)
Temperature  
Mean Temperature 79 °F -  
Max Temperature 92 °F 78 °F 86 °F (1999)
Min Temperature 67 °F 75 °F 73 °F (2002)
Cooling Degree Days 14    
Growing Degree Days 29 (Base 50)    
Moisture  
Dew Point 71 °F    
Average Humidity 76    
Maximum Humidity 100    
Minimum Humidity 47    
Precipitation  
Precipitation 0.00 in - - ()
Sea Level Pressure  
Sea Level Pressure 30.10 in    
Wind  
Wind Speed 4 mph (NNE)    
Max Wind Speed 15 mph    
Max Gust Speed 21 mph    
Visibility 10 miles    
Events Rain , Thunderstorm    
Averages and records for this station are not official NWS values.
T = Trace of Precipitation, MM = Missing Value Source: NWS Daily Summary

Daily Weather History Graph

Daily Weather History Graph

Search for Another Location

Airport:

Trip Planner

Search our weather history database for the weather conditions in past years. The results will help you decide how hot, cold, wet, or windy it might be!

Date:

Astronomy

May. 24, 2013 Rise Set
Actual Time 6:04 AM CDT 7:52 PM CDT
Civil Twilight 5:37 AM CDT 8:18 PM CDT
Nautical Twilight 5:05 AM CDT 8:50 PM CDT
Astronomical Twilight 4:32 AM CDT 9:24 PM CDT
Moon 7:36 PM CDT (5/24) 5:32 AM CDT (5/24)
Length of Visible Light 14h 41m
Length of Day
13h 48m
Full, 100% of the Moon is Illuminated
May 24
Full
May 24
Full
May 31
Last Quarter
Jun 8
New
Jun 16
First Quarter

Hourly Weather History & Observations

Time (CDT) Temp. Heat Index Dew Point Humidity Pressure Visibility Wind Dir Wind Speed Gust Speed Precip Events Conditions
12:15 AM 74.1 °F - 72.0 °F 93% 30.03 in 10.0 mi SSE 4.6 mph - N/A   Clear
12:35 AM 74.8 °F - 72.7 °F 93% 30.06 in 10.0 mi North 5.8 mph - N/A   Scattered Clouds
12:55 AM 75.4 °F - 73.2 °F 93% 30.06 in 10.0 mi North 3.5 mph - N/A   Mostly Cloudy
1:15 AM 76.1 °F - 72.5 °F 89% 30.05 in 10.0 mi Calm Calm - N/A   Scattered Clouds
1:35 AM 75.6 °F - 72.5 °F 90% 30.04 in 10.0 mi Calm Calm - N/A   Clear
1:55 AM 74.3 °F - 72.0 °F 92% 30.04 in 10.0 mi Calm Calm - N/A   Clear
2:15 AM 73.6 °F - 71.6 °F 93% 30.03 in 10.0 mi Calm Calm - N/A   Clear
2:35 AM 73.2 °F - 71.1 °F 93% 30.04 in 10.0 mi NW 3.5 mph - N/A   Clear
2:55 AM 72.0 °F - 70.3 °F 95% 30.04 in 10.0 mi NW 3.5 mph - N/A   Clear
3:15 AM 71.6 °F - 70.0 °F 95% 30.05 in 10.0 mi North 4.6 mph - N/A   Scattered Clouds
3:35 AM 71.6 °F - 70.0 °F 95% 30.05 in 10.0 mi Calm Calm - N/A   Scattered Clouds
3:55 AM 71.1 °F - 69.8 °F 96% 30.05 in 10.0 mi Calm Calm - N/A   Clear
4:15 AM 70.7 °F - 69.4 °F 96% 30.06 in 10.0 mi Calm Calm - N/A   Clear
4:35 AM 70.3 °F - 69.1 °F 96% 30.06 in 10.0 mi Calm Calm - N/A   Clear
4:55 AM 69.8 °F - 68.7 °F 96% 30.06 in 7.0 mi Calm Calm - N/A   Clear
5:15 AM 68.9 °F - 68.0 °F 97% 30.07 in 7.0 mi Calm Calm - N/A   Clear
5:35 AM 68.4 °F - 67.8 °F 98% 30.07 in 7.0 mi Calm Calm - N/A   Clear
5:55 AM 68.4 °F - 68.0 °F 99% 30.08 in 10.0 mi Calm Calm - N/A   Clear
6:15 AM 67.6 °F - 67.1 °F 98% 30.09 in 7.0 mi Calm Calm - N/A   Clear
6:35 AM 67.8 °F - 67.3 °F 98% 30.09 in 7.0 mi Calm Calm - N/A   Clear
6:55 AM 68.0 °F - 68.0 °F 100% 30.10 in 7.0 mi Calm Calm - N/A   Clear
7:15 AM 68.9 °F - 68.9 °F 100% 30.10 in 10.0 mi NNW 4.6 mph - N/A   Clear
7:35 AM 73.4 °F - 70.3 °F 90% 30.11 in 10.0 mi NW 4.6 mph - N/A   Clear
7:55 AM 78.1 °F - 70.7 °F 78% 30.12 in 10.0 mi NNW 4.6 mph - N/A   Clear
8:15 AM 79.9 °F - 71.8 °F 76% 30.12 in 10.0 mi NNW 8.1 mph - N/A   Clear
8:35 AM 80.8 °F 85.1 °F 72.1 °F 75% 30.12 in 10.0 mi NNW 5.8 mph - N/A   Clear
8:55 AM 82.4 °F 87.7 °F 72.7 °F 72% 30.13 in 10.0 mi NW 5.8 mph - N/A   Clear
9:15 AM 83.1 °F 88.6 °F 72.5 °F 70% 30.13 in 10.0 mi Calm Calm - N/A   Clear
9:35 AM 84.6 °F 91.0 °F 72.9 °F 68% 30.14 in 10.0 mi NW 3.5 mph - N/A   Clear
9:55 AM 85.1 °F 90.1 °F 70.9 °F 62% 30.14 in 10.0 mi NW 4.6 mph - N/A   Clear
10:15 AM 86.0 °F 90.7 °F 70.3 °F 59% 30.14 in 10.0 mi NNE 5.8 mph - N/A   Clear
10:35 AM 87.1 °F 92.0 °F 70.2 °F 57% 30.14 in 10.0 mi North 5.8 mph - N/A   Clear
10:55 AM 87.3 °F 91.2 °F 68.9 °F 54% 30.14 in 10.0 mi NNE 8.1 mph - N/A   Clear
11:15 AM 87.4 °F 92.3 °F 70.2 °F 56% 30.14 in 10.0 mi North 6.9 mph - N/A   Clear
11:35 AM 88.0 °F 94.7 °F 71.8 °F 59% 30.14 in 10.0 mi North 8.1 mph - N/A   Clear
11:55 AM 87.4 °F 92.7 °F 70.7 °F 57% 30.14 in 10.0 mi North 10.4 mph - N/A   Clear
12:15 PM 87.8 °F 93.0 °F 70.2 °F 56% 30.14 in 10.0 mi NNE 9.2 mph - N/A   Clear
12:35 PM 88.3 °F 94.1 °F 71.1 °F 56% 30.13 in 10.0 mi North 9.2 mph - N/A   Clear
12:55 PM 89.4 °F 95.3 °F 70.9 °F 54% 30.13 in 10.0 mi North 8.1 mph - N/A   Clear
1:15 PM 89.4 °F 95.3 °F 70.7 °F 54% 30.13 in 10.0 mi North 6.9 mph - N/A   Clear
1:35 PM 90.5 °F 96.5 °F 70.7 °F 52% 30.13 in 10.0 mi North 6.9 mph - N/A   Clear
1:55 PM 90.5 °F 96.0 °F 70.0 °F 51% 30.13 in 10.0 mi Calm Calm - N/A   Clear
2:15 PM 90.9 °F 96.2 °F 69.8 °F 50% 30.13 in 10.0 mi ENE 4.6 mph - N/A   Clear
2:35 PM 91.8 °F 97.5 °F 70.0 °F 49% 30.12 in 10.0 mi ENE 3.5 mph - N/A   Clear
2:55 PM 91.9 °F 96.9 °F 68.9 °F 47% 30.12 in 10.0 mi North 3.5 mph - N/A   Clear
3:15 PM 91.9 °F 97.4 °F 69.4 °F 48% 30.12 in 10.0 mi NNE 5.8 mph - N/A   Clear
3:35 PM 91.6 °F 97.7 °F 70.3 °F 50% 30.10 in 10.0 mi North 4.6 mph - N/A   Clear
3:55 PM 88.5 °F 95.8 °F 72.7 °F 59% 30.10 in 10.0 mi NNE 12.7 mph - N/A Thunderstorm Scattered Clouds
4:15 PM 86.5 °F 91.8 °F 70.5 °F 59% 30.11 in 10.0 mi NE 13.8 mph 19.6 mph N/A Rain , Thunderstorm Light Thunderstorms and Rain
4:35 PM 83.8 °F 89.5 °F 72.3 °F 68% 30.11 in 10.0 mi NNE 15.0 mph 20.7 mph N/A Thunderstorm Overcast
4:55 PM 84.7 °F 86.8 °F 65.7 °F 53% 30.10 in 10.0 mi NE 10.4 mph 19.6 mph N/A   Scattered Clouds
5:15 PM 82.9 °F 84.6 °F 64.8 °F 54% 30.10 in 10.0 mi NNE 9.2 mph - N/A   Scattered Clouds
5:35 PM 85.3 °F 89.4 °F 69.6 °F 59% 30.09 in 10.0 mi ENE 10.4 mph 16.1 mph N/A   Clear
5:55 PM 83.3 °F 89.3 °F 72.9 °F 71% 30.07 in 10.0 mi East 5.8 mph - N/A   Clear
6:15 PM 82.4 °F 88.2 °F 73.4 °F 74% 30.08 in 10.0 mi East 8.1 mph - N/A   Clear
6:35 PM 82.0 °F 87.7 °F 73.4 °F 75% 30.08 in 10.0 mi East 3.5 mph - N/A   Clear
6:55 PM 82.2 °F 87.6 °F 72.9 °F 73% 30.09 in 10.0 mi East 3.5 mph - N/A   Clear
7:15 PM 81.9 °F 87.0 °F 72.7 °F 74% 30.10 in 10.0 mi Calm Calm - N/A   Clear
7:35 PM 81.9 °F 86.8 °F 72.3 °F 73% 30.11 in 10.0 mi ENE 3.5 mph - N/A   Clear
7:55 PM 81.9 °F 86.6 °F 72.0 °F 72% 30.11 in 10.0 mi Calm Calm - N/A   Clear
8:15 PM 81.5 °F 86.3 °F 72.5 °F 74% 30.11 in 10.0 mi Calm Calm - N/A   Clear
8:35 PM 80.8 °F 85.2 °F 72.7 °F 76% 30.11 in 10.0 mi ENE 4.6 mph - N/A   Clear
8:55 PM 80.8 °F 85.2 °F 72.5 °F 76% 30.12 in 10.0 mi ENE 3.5 mph - N/A   Clear
9:15 PM 79.9 °F - 72.9 °F 79% 30.12 in 10.0 mi ENE 4.6 mph - N/A   Clear
9:35 PM 79.9 °F - 72.7 °F 79% 30.12 in 10.0 mi ENE 3.5 mph - N/A   Clear
9:55 PM 79.7 °F - 72.5 °F 79% 30.13 in 10.0 mi ENE 3.5 mph - N/A   Clear
10:15 PM 79.0 °F - 72.5 °F 80% 30.13 in 10.0 mi Calm Calm - N/A   Clear
10:35 PM 76.6 °F - 72.5 °F 87% 30.14 in 10.0 mi Calm Calm - N/A   Clear
10:55 PM 75.9 °F - 72.1 °F 88% 30.14 in 10.0 mi Calm Calm - N/A   Clear
11:15 PM 76.3 °F - 72.3 °F 87% 30.14 in 10.0 mi ENE 3.5 mph - N/A   Clear
11:35 PM 78.3 °F - 73.2 °F 84% 30.14 in 10.0 mi Calm Calm - N/A   Clear
11:55 PM 76.1 °F - 72.5 °F 89% 30.14 in 10.0 mi Calm Calm - N/A   Clear